This demonstration page uses our WeatherBlox Daily Observations layout. Learn more.

41.55636, -103.73856

Hourly Observations for October 20, 2020

Temp ( °F °C ) Dew Point ( °F °C ) Humidity (%) Winds ( mph kmh ) Pressure ( in mb ) Visibility ( mi km ) Precip ( " mm )
12:58 am 00:58 Clear 42 5.5 33 0.8 72 72 SSW 28 44 29.85 1011 10 16.0934 0 0
1:58 am 01:58 Clear 41 5.2 33 0.6 72 72 SSW 21 33 29.85 1011 10 16.0934 0 0
2:58 am 02:58 Clear 40 4.5 32 0.2 74 74 SW 14 22 29.82 1010 10 16.0934 0 0
3:58 am 03:58 Clear 43 6.2 31 -0.5 63 63 SSW 18 30 29.79 1009 10 16.0934 0 0
4:58 am 04:58 Clear 42 5.7 29 -1.4 61 61 W 7 11 29.8 1009 10 16.0934 0 0
5:58 am 05:58 Clear 43 5.9 29 -1.6 59 59 SSW 8 13 29.83 1010 10 16.0934 0 0
6:58 am 06:58 Clear 44 6.8 28 -2.1 53 53 W 12 19 29.85 1011 10 16.0934 0 0
7:58 am 07:58 Sunny 44 6.8 32 0 62 62 N 14 22 29.92 1013 10 16.0934 0 0
8:58 am 08:58 Sunny 44 6.4 35 1.6 72 72 WNW 12 19 29.97 1015 10 16.0934 0 0
9:58 am 09:58 Sunny 43 5.9 35 1.8 75 75 NW 14 22 30.01 1016 10 16.0934 0 0
10:58 am 10:58 Sunny 48 8.7 35 1.9 63 63 NNW 15 24 30 1016 10 16.0934 0 0
11:58 am 11:58 Sunny 51 10.8 35 1.6 53 53 NNW 12 19 29.99 1016 10 16.0934 0 0
12:58 pm 12:58 Mostly Sunny 55 12.8 33 0.6 44 44 N 17 28 29.97 1015 10 16.0934 0 0
1:58 pm 13:58 Sunny 58 14.7 30 -1 34 34 N 16 26 29.94 1014 10 16.0934 0 0
2:58 pm 14:58 Sunny 57 13.9 31 -0.7 37 37 N 18 30 29.96 1015 10 16.0934 0 0
3:58 pm 15:58 Sunny 55 13 31 -0.8 39 39 N 17 28 29.95 1014 10 16.0934 0 0
4:58 pm 16:58 Sunny 53 11.8 30 -1 41 41 NNE 15 24 30 1016 10 16.0934 0 0
5:58 pm 17:58 Sunny 49 9.7 31 -0.7 49 49 NNE 10 17 30.05 1018 10 16.0934 0 0
7:58 pm 19:58 Mostly Cloudy 43 6.3 30 -0.9 60 60 Calm 30.11 1020 10 16.0934 0 0
8:58 pm 20:58 Mostly Cloudy 43 6.2 31 -0.4 63 63 NE 7 11 30.12 1020 10 16.0934 0 0
9:58 pm 21:58 Mostly Cloudy 41 5.2 32 -0.2 68 68 SE 7 11 30.12 1020 10 16.0934 0 0
10:58 pm 22:58 Mostly Cloudy 43 6.2 31 -0.4 63 63 SSE 8 13 30.09 1019 10 16.0934 0 0
11:58 pm 23:58 Mostly Cloudy 44 6.6 33 0.3 64 64 SE 12 19 30.05 1018 10 16.0934 0 0

Powered by AerisWeather